OEITH LOWI-EDDK

Flight info

Callsign OEITH
Flight time 0h 51m
Altitude 32000
Route KPT L608 KOVAN T844 ASKIK T840 GULKO
Aircraft CL60/M-SDFGHIRWXY/H

Departure

Time 2026-04-30 19:15
Airport Innsbruck Airport (LOWI)

Arrival

Time 2026-04-30 20:07
Airport Cologne Bonn Airport (EDDK)
Time Latitude Longitude Altitude Speed Heading
2026-04-30 18:49 47.25908 11.35378 1909 ft 0 kts 259°
2026-04-30 19:11 47.25908 11.35377 1907 ft 0 kts 259°
2026-04-30 19:11 47.25906 11.35364 1907 ft 0 kts 259°
2026-04-30 19:12 47.25913 11.35352 1907 ft 3 kts 349°
2026-04-30 19:12 47.25924 11.35341 1907 ft 0 kts 275°
2026-04-30 19:13 47.25924 11.35336 1907 ft 0 kts 275°
2026-04-30 19:14 47.25960 11.35282 1908 ft 11 kts 344°
2026-04-30 19:14 47.26052 11.35262 1908 ft 15 kts 351°
2026-04-30 19:15 47.26109 11.35212 1908 ft 11 kts 253°
2026-04-30 19:15 47.25953 11.33818 1919 ft 161 kts 261°
2026-04-30 19:15 47.25766 11.32055 2713 ft 185 kts 262°
2026-04-30 19:16 47.25602 11.30118 3710 ft 208 kts 264°
2026-04-30 19:16 47.25438 11.27874 4596 ft 233 kts 267°
2026-04-30 19:16 47.26162 11.23290 6464 ft 237 kts 294°
2026-04-30 19:17 47.26816 11.21084 7358 ft 239 kts 296°
2026-04-30 19:17 47.28191 11.16648 9062 ft 241 kts 296°
2026-04-30 19:17 47.28865 11.14382 9976 ft 243 kts 296°
2026-04-30 19:18 47.30089 11.10269 10873 ft 303 kts 295°
2026-04-30 19:18 47.30548 11.05993 12087 ft 340 kts 270°
2026-04-30 19:18 47.30421 11.02453 12942 ft 351 kts 269°
2026-04-30 19:19 47.30288 10.98864 13814 ft 353 kts 270°
2026-04-30 19:19 47.30153 10.95243 14704 ft 357 kts 270°
2026-04-30 19:19 47.29972 10.87774 16605 ft 372 kts 280°
2026-04-30 19:20 47.30602 10.84153 17764 ft 366 kts 300°
2026-04-30 19:20 47.31933 10.81073 18841 ft 360 kts 317°
2026-04-30 19:20 47.35674 10.76002 20363 ft 374 kts 324°
2026-04-30 19:21 47.37602 10.73466 21403 ft 378 kts 324°
2026-04-30 19:21 47.41776 10.68759 23460 ft 377 kts 332°
2026-04-30 19:22 47.46140 10.64342 25381 ft 383 kts 332°
2026-04-30 19:22 47.52858 10.57501 27591 ft 398 kts 333°
2026-04-30 19:23 47.59816 10.50376 29457 ft 411 kts 333°
2026-04-30 19:24 47.64531 10.45524 30648 ft 417 kts 333°
2026-04-30 19:24 47.66933 10.43043 31345 ft 416 kts 333°
2026-04-30 19:24 47.71680 10.38134 32237 ft 416 kts 333°
2026-04-30 19:25 47.78558 10.30335 32880 ft 412 kts 328°
2026-04-30 19:26 47.83018 10.24893 33553 ft 414 kts 328°
2026-04-30 19:26 47.87447 10.19477 34497 ft 413 kts 328°
2026-04-30 19:26 47.89661 10.16762 35071 ft 410 kts 328°
2026-04-30 19:27 47.94040 10.11387 36076 ft 404 kts 327°
2026-04-30 19:27 47.98376 10.06055 37013 ft 402 kts 328°
2026-04-30 19:28 48.00509 10.03431 37458 ft 402 kts 327°
2026-04-30 19:28 48.04870 9.98055 38219 ft 403 kts 327°
2026-04-30 19:29 48.09267 9.92631 38298 ft 418 kts 327°
2026-04-30 19:30 48.18414 9.81304 38302 ft 438 kts 327°
2026-04-30 19:31 48.27763 9.69657 38283 ft 437 kts 326°
2026-04-30 19:31 48.34777 9.60872 38278 ft 439 kts 326°
2026-04-30 19:32 48.39418 9.54941 38288 ft 440 kts 326°
2026-04-30 19:32 48.44107 9.48930 38283 ft 441 kts 326°
2026-04-30 19:33 48.48774 9.42935 38278 ft 441 kts 326°
2026-04-30 19:33 48.53425 9.36945 38289 ft 441 kts 326°
2026-04-30 19:34 48.58105 9.30902 38302 ft 442 kts 324°
2026-04-30 19:34 48.62974 9.25429 38308 ft 435 kts 335°
2026-04-30 19:35 48.65532 9.23498 38308 ft 431 kts 341°
2026-04-30 19:35 48.71094 9.19853 38308 ft 431 kts 341°
2026-04-30 19:36 48.76612 9.16220 38310 ft 432 kts 341°
2026-04-30 19:36 48.84911 9.10728 38305 ft 433 kts 341°
2026-04-30 19:37 48.90492 9.07292 38299 ft 430 kts 346°
2026-04-30 19:37 48.96202 9.04460 38302 ft 430 kts 347°
2026-04-30 19:38 49.01883 9.01623 38310 ft 431 kts 346°
2026-04-30 19:38 49.07581 8.98765 38308 ft 431 kts 346°
2026-04-30 19:39 49.13258 8.95907 38310 ft 432 kts 346°
2026-04-30 19:39 49.18897 8.93060 38315 ft 432 kts 346°
2026-04-30 19:40 49.24250 8.90352 38314 ft 432 kts 346°
2026-04-30 19:40 49.30203 8.87328 38318 ft 432 kts 346°
2026-04-30 19:41 49.35921 8.84415 38321 ft 432 kts 346°
2026-04-30 19:41 49.41647 8.81574 38321 ft 431 kts 348°
2026-04-30 19:42 49.47425 8.79063 38323 ft 431 kts 349°
2026-04-30 19:42 49.53199 8.76552 38325 ft 432 kts 349°
2026-04-30 19:43 49.58993 8.74020 38325 ft 432 kts 349°
2026-04-30 19:44 49.67687 8.70204 38323 ft 432 kts 349°
2026-04-30 19:44 49.73475 8.67652 38330 ft 432 kts 349°
2026-04-30 19:45 49.79251 8.65098 38327 ft 433 kts 348°
2026-04-30 19:45 49.82142 8.63818 37988 ft 435 kts 348°
2026-04-30 19:45 49.84998 8.62549 37472 ft 429 kts 348°
2026-04-30 19:45 49.87850 8.61280 36967 ft 427 kts 348°
2026-04-30 19:46 49.90689 8.60017 36485 ft 427 kts 348°
2026-04-30 19:46 49.93531 8.58752 35877 ft 427 kts 348°
2026-04-30 19:46 49.96382 8.57480 35330 ft 426 kts 348°
2026-04-30 19:46 49.99108 8.56264 34773 ft 427 kts 349°
2026-04-30 19:47 50.01882 8.55024 34214 ft 428 kts 348°
2026-04-30 19:47 50.04731 8.53747 33655 ft 430 kts 348°
2026-04-30 19:47 50.07597 8.52292 33092 ft 433 kts 345°
2026-04-30 19:47 50.10339 8.50814 32536 ft 435 kts 345°
2026-04-30 19:48 50.13236 8.49253 31956 ft 433 kts 345°
2026-04-30 19:48 50.16085 8.47716 31374 ft 430 kts 346°
2026-04-30 19:48 50.18803 8.46248 30827 ft 426 kts 346°
2026-04-30 19:48 50.21566 8.44754 30260 ft 422 kts 346°
2026-04-30 19:49 50.24079 8.43394 29759 ft 419 kts 346°
2026-04-30 19:49 50.29599 8.40142 28642 ft 418 kts 336°
2026-04-30 19:49 50.32113 8.37713 28045 ft 419 kts 332°
2026-04-30 19:50 50.34536 8.35295 27511 ft 415 kts 332°
2026-04-30 19:50 50.36935 8.32907 26963 ft 413 kts 332°
2026-04-30 19:50 50.39368 8.30481 26416 ft 410 kts 332°
2026-04-30 19:50 50.41736 8.28118 25880 ft 407 kts 332°
2026-04-30 19:51 50.44098 8.25756 25343 ft 404 kts 332°
2026-04-30 19:51 50.46449 8.23404 24812 ft 401 kts 331°
2026-04-30 19:51 50.48811 8.21036 24277 ft 399 kts 331°
2026-04-30 19:51 50.51129 8.18711 23751 ft 396 kts 331°
2026-04-30 19:52 50.53478 8.16351 23223 ft 394 kts 331°
2026-04-30 19:52 50.55758 8.14057 22710 ft 392 kts 332°
2026-04-30 19:52 50.58062 8.11738 22193 ft 390 kts 332°
2026-04-30 19:52 50.60354 8.09427 21663 ft 387 kts 332°
2026-04-30 19:53 50.62622 8.07132 21146 ft 385 kts 332°
2026-04-30 19:53 50.64867 8.04858 20646 ft 382 kts 332°
2026-04-30 19:53 50.67091 8.02601 20150 ft 380 kts 332°
2026-04-30 19:53 50.69303 8.00355 19632 ft 377 kts 332°
2026-04-30 19:54 50.71497 7.98116 19143 ft 375 kts 330°
2026-04-30 19:54 50.73476 7.95491 18651 ft 379 kts 317°
2026-04-30 19:54 50.75008 7.92070 18124 ft 384 kts 300°
2026-04-30 19:54 50.75849 7.88059 17555 ft 386 kts 282°
2026-04-30 19:55 50.76185 7.83862 16958 ft 383 kts 278°
2026-04-30 19:55 50.76487 7.79751 16498 ft 382 kts 279°
2026-04-30 19:55 50.76798 7.75533 15969 ft 378 kts 278°
2026-04-30 19:55 50.77095 7.71458 15486 ft 375 kts 278°
2026-04-30 19:56 50.77393 7.67336 14978 ft 373 kts 278°
2026-04-30 19:56 50.77680 7.63329 14488 ft 369 kts 278°
2026-04-30 19:56 50.77963 7.59344 13995 ft 367 kts 278°
2026-04-30 19:56 50.78248 7.55302 13491 ft 364 kts 278°
2026-04-30 19:57 50.78525 7.51346 13007 ft 359 kts 277°
2026-04-30 19:57 50.78794 7.47469 12354 ft 351 kts 277°
2026-04-30 19:57 50.79054 7.43693 11647 ft 347 kts 277°
2026-04-30 19:57 50.79313 7.39907 10962 ft 344 kts 277°
2026-04-30 19:58 50.79565 7.36196 10330 ft 339 kts 277°
2026-04-30 19:58 50.79802 7.32662 10112 ft 321 kts 276°
2026-04-30 19:58 50.80025 7.29296 10068 ft 299 kts 276°
2026-04-30 19:58 50.80222 7.26120 9790 ft 289 kts 272°
2026-04-30 19:59 50.79974 7.23019 9354 ft 282 kts 249°
2026-04-30 19:59 50.79199 7.20252 8854 ft 279 kts 242°
2026-04-30 19:59 50.77568 7.14819 7901 ft 275 kts 242°
2026-04-30 20:00 50.76763 7.12140 7430 ft 273 kts 242°
2026-04-30 20:00 50.75966 7.09490 6949 ft 271 kts 241°
2026-04-30 20:00 50.75146 7.06771 6470 ft 269 kts 241°
2026-04-30 20:00 50.74348 7.04113 5993 ft 266 kts 242°
2026-04-30 20:01 50.73387 6.98609 5169 ft 261 kts 274°
2026-04-30 20:01 50.73875 6.95893 4800 ft 255 kts 302°
2026-04-30 20:01 50.75042 6.93924 4358 ft 245 kts 331°
2026-04-30 20:02 50.78124 6.92663 3306 ft 222 kts
2026-04-30 20:02 50.79499 6.93215 2986 ft 191 kts 39°
2026-04-30 20:03 50.81028 6.96026 2521 ft 160 kts 71°
2026-04-30 20:03 50.81507 6.97603 2274 ft 153 kts 72°
2026-04-30 20:03 50.81943 6.99011 2117 ft 128 kts 73°
2026-04-30 20:03 50.82309 7.00191 1996 ft 118 kts 74°
2026-04-30 20:04 50.82643 7.01297 1780 ft 109 kts 75°
2026-04-30 20:04 50.82973 7.02395 1632 ft 111 kts 74°
2026-04-30 20:04 50.83305 7.03488 1477 ft 110 kts 74°
2026-04-30 20:05 50.83860 7.05320 1242 ft 113 kts 72°
2026-04-30 20:05 50.84308 7.06823 1064 ft 114 kts 70°
2026-04-30 20:05 50.84771 7.08331 885 ft 114 kts 69°
2026-04-30 20:06 50.84882 7.08700 831 ft 115 kts 70°
2026-04-30 20:06 50.85347 7.10234 581 ft 116 kts 67°
2026-04-30 20:06 50.86062 7.12547 260 ft 117 kts 66°
2026-04-30 20:06 50.86369 7.13557 254 ft 66 kts 64°
2026-04-30 20:07 50.86520 7.14052 259 ft 45 kts 65°
2026-04-30 20:07 50.86603 7.14330 263 ft 16 kts 64°
2026-04-30 20:07 50.86725 7.14364 262 ft 13 kts 319°
2026-04-30 20:08 50.86782 7.14283 259 ft 12 kts 317°
2026-04-30 20:08 50.86861 7.14172 255 ft 12 kts 319°
2026-04-30 20:08 50.86909 7.14072 253 ft 12 kts 281°
2026-04-30 20:08 50.86845 7.14038 253 ft 15 kts 132°
2026-04-30 20:09 50.86770 7.14127 256 ft 11 kts 167°
2026-04-30 20:09 50.86707 7.14040 256 ft 15 kts 244°
2026-04-30 20:09 50.86578 7.13616 251 ft 25 kts 244°
2026-04-30 20:10 50.86503 7.13286 248 ft 13 kts 298°
2026-04-30 20:10 50.86587 7.13160 244 ft 19 kts 318°
2026-04-30 20:10 50.86701 7.12996 241 ft 21 kts 316°
2026-04-30 20:11 50.86923 7.12674 235 ft 24 kts 317°
2026-04-30 20:11 50.87021 7.12531 233 ft 10 kts 317°
2026-04-30 20:11 50.87059 7.12474 232 ft 4 kts 317°
2026-04-30 20:12 50.87136 7.12413 230 ft 2 kts 34°
2026-04-30 20:12 50.87156 7.12448 231 ft 3 kts 83°
2026-04-30 20:12 50.87142 7.12484 231 ft 0 kts 136°
2026-04-30 20:13 50.87138 7.12498 231 ft 1 kts 96°
2026-04-30 20:13 50.87138 7.12500 231 ft 0 kts 94°